Location: Mount Cross
(36.6390°N, 79.4878°W)
Time: 12:16:03
(UTC+00:00)

Transit 2A Rocket - All Passes

Search period start: 30 March 2023 00:00
Search period end: 09 April 2023 00:00
Orbit: 583 x 916 km, 66.7° (Epoch: 30 March)

Date Brightness Start Highest point End Pass type
(mag) Time Alt. Az. Time Alt. Az. Time Alt. Az.
30 Mar - 00:12:07 10° NNW 00:18:01 51° ENE 00:23:36 10° SE visible
30 Mar - 01:55:39 10° NW 02:00:10 23° WSW 02:04:29 10° SSW visible
30 Mar - 14:42:58 10° S 14:48:13 59° ESE 14:53:59 10° NE daylight
30 Mar - 16:27:02 10° W 16:31:18 22° NW 16:35:48 10° N daylight
30 Mar - 23:29:12 10° N 23:34:33 31° NE 23:39:39 10° ESE daylight
31 Mar - 01:11:41 10° NW 01:17:14 40° WSW 01:22:27 10° S visible
31 Mar - 14:00:28 10° S 14:05:13 33° ESE 14:10:20 10° NE daylight
31 Mar - 15:42:41 10° WSW 15:47:42 35° NW 15:53:06 10° NNE daylight
31 Mar - 22:46:34 10° N 22:50:56 20° NE 22:55:08 10° E daylight
01 Apr - 00:28:08 10° NNW 00:34:09 71° WSW 00:39:46 10° SSE visible
01 Apr - 13:18:45 10° SE 13:22:20 18° ESE 13:26:05 10° ENE daylight
01 Apr - 14:58:53 10° SW 15:04:16 58° WNW 15:10:07 10° NNE daylight
01 Apr - 16:46:55 10° NW 16:48:13 11° NW 16:49:33 10° NNW daylight
01 Apr - 22:04:32 10° NNE 22:07:09 13° NE 22:09:41 10° ENE daylight
01 Apr - 23:44:52 10° NNW 23:50:55 69° ENE 23:56:34 10° SE daylight
02 Apr - 01:29:19 10° WNW 01:32:46 16° WSW 01:36:05 10° SW visible
02 Apr - 14:15:34 10° SSW 14:20:59 82° ESE 14:26:55 10° NNE daylight
02 Apr - 16:00:45 10° W 16:04:22 17° NW 16:08:10 10° N daylight
02 Apr - 23:01:50 10° NNW 23:07:32 41° NE 23:12:54 10° SE daylight
03 Apr - 00:44:52 10° NW 00:49:53 29° WSW 00:54:39 10° SSW visible
03 Apr - 13:32:44 10° S 13:37:52 46° ESE 13:43:28 10° NE daylight
03 Apr - 15:16:01 10° WSW 15:20:41 27° NW 15:25:40 10° N daylight
03 Apr - 22:19:01 10° N 22:23:59 26° NE 22:28:43 10° ESE daylight
04 Apr - 00:01:05 10° NW 00:06:54 51° WSW 00:12:17 10° S visible
04 Apr - 12:50:31 10° SSE 12:54:55 26° ESE 12:59:36 10° NE daylight
04 Apr - 14:31:55 10° SW 14:37:10 43° NW 14:42:50 10° NNE daylight
04 Apr - 21:36:34 10° N 21:40:17 16° NE 21:43:52 10° E daylight
04 Apr - 23:17:41 10° NNW 23:23:45 89° WSW 23:29:22 10° SSE daylight
05 Apr - 01:04:02 10° W 01:05:18 11° W 01:06:33 10° WSW visible
05 Apr - 12:09:23 10° SE 12:12:04 14° E 12:14:51 10° ENE daylight
05 Apr - 13:48:20 10° SSW 13:53:47 74° WNW 13:59:45 10° NNE daylight
05 Apr - 15:34:48 10° WNW 15:37:30 13° NW 15:40:16 10° NNW daylight
05 Apr - 20:55:32 10° NNE 20:56:25 10° NE 20:57:18 10° NE daylight
05 Apr - 22:34:31 10° NNW 22:40:26 54° ENE 22:45:58 10° SE daylight
06 Apr - 00:18:15 10° WNW 00:22:30 21° WSW 00:26:32 10° SSW visible
06 Apr - 13:05:12 10° SSW 13:10:35 64° ESE 13:16:27 10° NNE daylight
06 Apr - 14:49:31 10° W 14:53:43 21° NW 14:58:08 10° N daylight
06 Apr - 21:51:34 10° N 21:56:58 33° NE 22:02:05 10° ESE daylight
06 Apr - 23:34:09 10° NW 23:39:34 37° WSW 23:44:38 10° S daylight
07 Apr - 12:22:36 10° S 12:27:31 36° ESE 12:32:50 10° NE daylight
07 Apr - 14:05:05 10° WSW 14:10:06 33° NW 14:15:27 10° N daylight
07 Apr - 21:08:53 10° N 21:13:21 21° NE 21:17:38 10° E daylight
07 Apr - 22:50:34 10° NNW 22:56:31 65° WSW 23:02:00 10° SSE daylight
08 Apr - 11:40:43 10° SSE 11:44:36 20° ESE 11:48:42 10° ENE daylight
08 Apr - 13:21:12 10° SW 13:26:38 55° WNW 13:32:30 10° NNE daylight
08 Apr - 15:09:59 10° NW 15:10:40 10° NW 15:11:20 10° NNW daylight
08 Apr - 20:26:43 10° NNE 20:29:34 13° NE 20:32:21 10° ENE daylight
08 Apr - 22:07:16 10° NNW 22:13:17 74° ENE 22:18:52 10° SSE daylight
08 Apr - 23:52:02 10° WNW 23:55:02 14° WSW 23:57:57 10° SW daylight
